sat.trackr.live / text

‹ back to catalog

ONEWEB-0181

NORAD 48230 · 2021-031W

PAYLOAD ACTIVE UNKNOWN

§ Identity

Operator
Country
UK
Launch date
2021-04-25
Launch site
VOSTO
Launch vehicle
Mass (kg)
RCS (m²)

Purposes: comms

External: N2YO · Heavens-Above · Gunter

§ Orbital elements

Epoch: 2026-09-14T10:58:28.449408Z

Period
109.55 min
Inclination
87.8897°
Eccentricity
0.0001572
Mean motion
13.14505069 rev/d
Perigee alt
1,204.6 km
Apogee alt
1,207.0 km
Semi-major
7,583.9 km
B*
-5.7602e-4
RAAN
271.9150°
Arg perigee
94.1173°
Mean anomaly
266.0137°
Rev number
25,996

§ Raw data

ONEWEB-01811 48230U 21031W   26257.45727372 -.00000201  00000+0 -57602-3 0  99902 48230  87.8897 271.9150 0001572  94.1173 266.0137 13.14505069259961

JSON: /api/v1/satellites/48230 · /tle

For live sub-satellite position, see the globe view (requires WebGL).

§ Visibility from observer

Set your observer location to see the next 7 days of passes ≥ 10°. The values pass through the URL so the page stays shareable.

No JS? Fill the form by hand. The geolocation button needs JavaScript.